Change the Weather History Date:

Wednesday, April 9, 2014

  Actual Average Record
Temperature  
Mean Temperature 78 °F -  
Max Temperature 98 °F 80 °F 102 °F (1989)
Min Temperature 59 °F 52 °F 41 °F (1998)
Cooling Degree Days 13    
Growing Degree Days 28 (Base 50)    
Moisture  
Dew Point 20 °F    
Average Humidity 12    
Maximum Humidity 18    
Minimum Humidity 6    
Precipitation  
Precipitation 0.00 in - - ()
Sea Level Pressure  
Sea Level Pressure 29.91 in    
Wind  
Wind Speed 6 mph (North)    
Max Wind Speed 13 mph    
Max Gust Speed -    
Visibility 10 miles    
Events      
Averages and records for this station are not official NWS values.
T = Trace of Precipitation, MM = Missing Value Source: NWS Daily Summary

Daily Weather History Graph

Daily Weather History Graph

Search for Another Location

Airport or City:

Trip Planner

Search our weather history database for the weather conditions in past years. The results will help you decide how hot, cold, wet, or windy it might be!

Date:

Astronomy

Apr. 09, 2014 Rise Set
Actual Time 6:15 AM PDT 7:05 PM PDT
Civil Twilight 5:50 AM PDT 7:30 PM PDT
Nautical Twilight 5:20 AM PDT 8:00 PM PDT
Astronomical Twilight 4:49 AM PDT 8:31 PM PDT
Moon 2:11 PM PDT (4/9) 2:52 AM PDT (4/9)
Length of Visible Light 13h 40m
Length of Day
12h 49m
Waxing Gibbous, 72% of the Moon is Illuminated
Apr 9
Waxing Gibbous
Apr 15
Full
Apr 22
Last Quarter
Apr 28
New
May 6
First Quarter

Hourly Weather History & Observations

Time (PDT) Temp. Dew Point Humidity Pressure Visibility Wind Dir Wind Speed Gust Speed Precip Events Conditions
12:52 AM 66.9 °F 19.0 °F 16% 29.96 in 10.0 mi North 6.9 mph - N/A   Clear
1:52 AM 66.0 °F 15.1 °F 14% 29.96 in 10.0 mi NNW 5.8 mph - N/A   Clear
2:52 AM 64.9 °F 15.1 °F 15% 29.94 in 10.0 mi NNW 8.1 mph - N/A   Clear
3:52 AM 63.0 °F 15.1 °F 16% 29.93 in 10.0 mi NNW 9.2 mph - N/A   Clear
4:52 AM 61.0 °F 15.1 °F 17% 29.93 in 10.0 mi NNW 9.2 mph - N/A   Clear
5:52 AM 60.1 °F 16.0 °F 18% 29.95 in 10.0 mi NNE 3.5 mph - N/A   Clear
6:52 AM 59.0 °F 15.1 °F 18% 29.97 in 10.0 mi Calm Calm - N/A   Clear
7:52 AM 66.0 °F 18.0 °F 16% 29.99 in 10.0 mi Calm Calm - N/A   Clear
8:52 AM 75.0 °F 21.0 °F 13% 29.99 in 10.0 mi Calm Calm - N/A   Clear
9:52 AM 79.0 °F 21.9 °F 12% 30.00 in 10.0 mi Calm Calm - N/A   Clear
11:52 AM 88.0 °F 26.1 °F 11% 29.97 in 10.0 mi Variable 3.5 mph - N/A   Clear
12:52 PM 91.9 °F 24.1 °F 9% 29.95 in 10.0 mi Calm Calm - N/A   Clear
1:52 PM 93.9 °F 21.9 °F 7% 29.92 in 10.0 mi SW 5.8 mph - N/A   Clear
2:52 PM 96.1 °F 17.1 °F 6% 29.88 in 10.0 mi SSE 6.9 mph - N/A   Clear
3:52 PM 97.0 °F 19.9 °F 6% 29.86 in 10.0 mi SE 5.8 mph - N/A   Clear
4:52 PM 97.0 °F 19.9 °F 6% 29.84 in 10.0 mi Variable 6.9 mph - N/A   Clear
5:52 PM 96.1 °F 25.0 °F 8% 29.83 in 10.0 mi East 9.2 mph - N/A   Clear
6:52 PM 91.9 °F 21.9 °F 8% 29.83 in 10.0 mi ENE 5.8 mph - N/A   Clear
7:52 PM 91.0 °F 12.9 °F 6% 29.84 in 10.0 mi WSW 12.7 mph - N/A   Clear
8:52 PM 87.1 °F 18.0 °F 8% 29.86 in 10.0 mi West 8.1 mph - N/A   Clear
9:52 PM 82.0 °F 19.9 °F 10% 29.88 in 10.0 mi West 5.8 mph - N/A   Clear
10:52 PM 77.0 °F 28.9 °F 17% 29.88 in 10.0 mi ESE 6.9 mph - N/A   Clear
11:52 PM 80.1 °F 27.0 °F 14% 29.88 in 10.0 mi SSE 4.6 mph - N/A   Clear